Location: Izdebno
(52.6670°N, 16.2170°E)
Time: 09:50:51
(UTC+01:00)

Transit 2A - Pass Details

Date: 02 February 2023
Orbit: 591 x 964 km, 66.7° (Epoch: 21 March)

Event Time Altitude Azimuth Distance (km) Brightness Sun altitude
Rises 23:12:01 0° 314° (NW) 3,350 9.8 -52.3°
Enters shadow 23:12:32 - 316° (NW) 3,175 9.7 -52.3°
Reaches altitude 10° 23:14:44 10° 326° (NNW) 2,478 - -52.5°
Maximum altitude 23:19:42 29° 25° (NNE) 1,606 - -52.7°
Drops below altitude 10° 23:24:59 10° 84° (E) 2,649 - -53.0°
Sets 23:27:58 0° 95° (E) 3,623 - -53.1°
